Time,TemperatureF,DewpointF,PressureIn,WindDirection,WindDirectionDegrees,WindSpeedMPH,WindSpeedGustMPH,Humidity,HourlyPrecipIn,Conditions,Clouds,dailyrainin,SoftwareType,DateUTC
2013-01-18 00:00:00,21.6,19.6,30.56,NNW,329,0.0,0.0,92,0.00,,,0.00,WeatherCatV1.10B1784,2013-01-18 06:00:00,
2013-01-18 00:05:00,21.6,19.6,30.56,NNW,329,0.0,0.0,92,0.00,,,0.00,WeatherCatV1.10B1784,2013-01-18 06:05:00,
2013-01-18 00:10:00,21.5,19.5,30.56,NNW,329,0.0,0.0,92,0.00,,,0.00,WeatherCatV1.10B1784,2013-01-18 06:10:00,
2013-01-18 00:15:00,21.5,19.5,30.56,NNW,329,0.0,0.0,92,0.00,,,0.00,WeatherCatV1.10B1784,2013-01-18 06:15:00,
2013-01-18 00:20:00,21.5,19.5,30.56,NNW,329,0.0,0.0,92,0.00,,,0.00,WeatherCatV1.10B1784,2013-01-18 06:20:00,
2013-01-18 00:25:00,21.4,19.4,30.56,NNW,329,0.0,0.0,92,0.00,,,0.00,WeatherCatV1.10B1784,2013-01-18 06:25:00,
2013-01-18 00:30:00,21.4,19.4,30.57,NNW,329,0.0,0.0,92,0.00,,,0.00,WeatherCatV1.10B1784,2013-01-18 06:30:00,
2013-01-18 00:35:00,21.3,19.3,30.57,NNW,329,0.0,0.0,92,0.00,,,0.00,WeatherCatV1.10B1784,2013-01-18 06:35:00,
2013-01-18 00:40:00,21.2,19.2,30.57,NNW,329,0.0,0.0,92,0.00,,,0.00,WeatherCatV1.10B1784,2013-01-18 06:40:00,
2013-01-18 00:45:00,21.2,19.2,30.57,NNW,329,0.0,0.0,92,0.00,,,0.00,WeatherCatV1.10B1784,2013-01-18 06:45:00,
2013-01-18 00:50:00,21.2,19.2,30.57,NNW,329,0.0,0.0,92,0.00,,,0.00,WeatherCatV1.10B1784,2013-01-18 06:50:00,
2013-01-18 00:55:00,21.2,19.5,30.58,NNW,329,0.0,0.0,93,0.00,,,0.00,WeatherCatV1.10B1784,2013-01-18 06:55:00,
2013-01-18 01:00:00,21.2,19.2,30.57,NNW,329,0.0,0.0,92,0.00,,,0.00,WeatherCatV1.10B1784,2013-01-18 07:00:00,
2013-01-18 01:14:00,21.2,19.2,30.58,NNW,329,0.0,0.0,92,0.00,,,0.00,WeatherCatV1.10B1784,2013-01-18 07:14:00,
2013-01-18 01:19:00,21.1,19.1,30.58,NNW,329,0.0,0.0,92,0.00,,,0.00,WeatherCatV1.10B1784,2013-01-18 07:19:00,
2013-01-18 01:24:00,21.0,19.0,30.58,NNW,329,0.0,0.0,92,0.00,,,0.00,WeatherCatV1.10B1784,2013-01-18 07:24:00,
2013-01-18 01:29:00,20.9,19.0,30.58,NNW,329,0.0,0.0,92,0.00,,,0.00,WeatherCatV1.10B1784,2013-01-18 07:29:00,
2013-01-18 01:34:00,20.9,19.2,30.58,NNW,329,0.0,0.0,93,0.00,,,0.00,WeatherCatV1.10B1784,2013-01-18 07:34:00,
2013-01-18 01:39:00,20.9,19.0,30.58,NNW,329,0.0,0.0,92,0.00,,,0.00,WeatherCatV1.10B1784,2013-01-18 07:39:00,
2013-01-18 01:44:00,20.9,19.0,30.59,NNW,329,0.0,0.0,92,0.00,,,0.00,WeatherCatV1.10B1784,2013-01-18 07:44:00,
2013-01-18 01:49:00,20.8,19.1,30.59,NNW,329,0.0,0.0,93,0.00,,,0.00,WeatherCatV1.10B1784,2013-01-18 07:49:00,
2013-01-18 01:54:00,20.8,19.1,30.59,NNW,329,0.0,0.0,93,0.00,,,0.00,WeatherCatV1.10B1784,2013-01-18 07:54:00,
2013-01-18 01:59:00,20.8,19.1,30.59,NNW,329,0.0,0.0,93,0.00,,,0.00,WeatherCatV1.10B1784,2013-01-18 07:59:00,
2013-01-18 02:04:00,20.7,19.0,30.58,NNW,329,0.0,0.0,93,0.00,,,0.00,WeatherCatV1.10B1784,2013-01-18 08:04:00,
2013-01-18 02:09:00,20.7,19.0,30.58,NNW,329,0.0,0.0,93,0.00,,,0.00,WeatherCatV1.10B1784,2013-01-18 08:09:00,
2013-01-18 02:14:00,20.7,19.0,30.58,NNW,329,0.0,0.0,93,0.00,,,0.00,WeatherCatV1.10B1784,2013-01-18 08:14:00,
2013-01-18 02:19:00,20.7,19.0,30.58,NNW,329,0.0,0.0,93,0.00,,,0.00,WeatherCatV1.10B1784,2013-01-18 08:19:00,
2013-01-18 02:24:00,20.7,19.0,30.58,NNW,329,0.0,0.0,93,0.00,,,0.00,WeatherCatV1.10B1784,2013-01-18 08:24:00,
2013-01-18 02:29:00,20.8,19.1,30.58,NNW,329,0.0,0.0,93,0.00,,,0.00,WeatherCatV1.10B1784,2013-01-18 08:29:00,
2013-01-18 02:34:00,20.8,19.1,30.59,NNW,329,0.0,0.0,93,0.00,,,0.00,WeatherCatV1.10B1784,2013-01-18 08:34:00,
2013-01-18 02:39:00,20.7,19.0,30.59,NNW,329,0.0,0.0,93,0.00,,,0.00,WeatherCatV1.10B1784,2013-01-18 08:39:00,
2013-01-18 02:45:00,20.7,19.0,30.59,NNW,329,0.0,0.0,93,0.00,,,0.00,WeatherCatV1.10B1784,2013-01-18 08:45:00,
2013-01-18 02:50:00,20.7,19.0,30.58,NNW,329,0.0,0.0,93,0.00,,,0.00,WeatherCatV1.10B1784,2013-01-18 08:50:00,
2013-01-18 02:55:00,20.6,18.9,30.58,NNW,329,0.0,0.0,93,0.00,,,0.00,WeatherCatV1.10B1784,2013-01-18 08:55:00,
2013-01-18 03:00:00,20.6,18.9,30.58,NNW,329,0.0,0.0,93,0.00,,,0.00,WeatherCatV1.10B1784,2013-01-18 09:00:00,
2013-01-18 03:05:00,20.7,19.0,30.58,NNW,329,0.0,0.0,93,0.00,,,0.00,WeatherCatV1.10B1784,2013-01-18 09:05:00,
2013-01-18 03:10:00,20.9,19.5,30.58,NNW,329,0.0,0.0,94,0.00,,,0.00,WeatherCatV1.10B1784,2013-01-18 09:10:00,
2013-01-18 03:15:00,20.9,19.5,30.58,NNW,329,0.0,0.0,94,0.00,,,0.00,WeatherCatV1.10B1784,2013-01-18 09:15:00,
2013-01-18 03:20:00,20.9,19.5,30.58,NNW,329,0.0,0.0,94,0.00,,,0.00,WeatherCatV1.10B1784,2013-01-18 09:20:00,
2013-01-18 03:25:00,20.9,19.5,30.58,NNW,329,0.0,0.0,94,0.00,,,0.00,WeatherCatV1.10B1784,2013-01-18 09:25:00,
2013-01-18 03:30:00,20.9,19.5,30.58,NNW,329,0.0,0.0,94,0.00,,,0.00,WeatherCatV1.10B1784,2013-01-18 09:30:00,
2013-01-18 03:35:00,20.8,19.1,30.58,NNW,329,0.0,0.0,93,0.00,,,0.00,WeatherCatV1.10B1784,2013-01-18 09:35:00,
2013-01-18 03:40:00,20.9,19.5,30.58,NNW,329,0.0,0.0,94,0.00,,,0.00,WeatherCatV1.10B1784,2013-01-18 09:40:00,
2013-01-18 03:45:00,21.0,19.5,30.57,NNW,329,0.0,0.0,94,0.00,,,0.00,WeatherCatV1.10B1784,2013-01-18 09:45:00,
2013-01-18 03:50:00,21.1,19.6,30.57,NNW,329,0.0,0.0,94,0.00,,,0.00,WeatherCatV1.10B1784,2013-01-18 09:50:00,
2013-01-18 03:55:00,21.3,19.8,30.57,NNW,329,0.0,0.0,94,0.00,,,0.00,WeatherCatV1.10B1784,2013-01-18 09:55:00,
2013-01-18 04:00:00,21.4,19.9,30.57,NNW,329,0.0,0.0,94,0.00,,,0.00,WeatherCatV1.10B1784,2013-01-18 10:00:00,
2013-01-18 04:05:00,21.5,20.0,30.57,NNW,329,0.0,0.0,94,0.00,,,0.00,WeatherCatV1.10B1784,2013-01-18 10:05:00,
2013-01-18 04:10:00,21.6,20.1,30.57,NNW,329,0.0,0.0,94,0.00,,,0.00,WeatherCatV1.10B1784,2013-01-18 10:10:00,
2013-01-18 04:15:00,21.7,20.2,30.56,NNW,329,0.0,0.0,94,0.00,,,0.00,WeatherCatV1.10B1784,2013-01-18 10:15:00,
2013-01-18 04:20:00,21.7,20.2,30.56,NNW,329,0.0,0.0,94,0.00,,,0.00,WeatherCatV1.10B1784,2013-01-18 10:20:00,
2013-01-18 04:25:00,21.7,20.2,30.56,NNW,329,0.0,0.0,94,0.00,,,0.00,WeatherCatV1.10B1784,2013-01-18 10:25:00,
2013-01-18 04:30:00,21.7,20.2,30.56,NNW,329,0.0,0.0,94,0.00,,,0.00,WeatherCatV1.10B1784,2013-01-18 10:30:00,
2013-01-18 04:35:00,21.8,20.3,30.56,NNW,329,0.0,0.0,94,0.00,,,0.00,WeatherCatV1.10B1784,2013-01-18 10:35:00,
2013-01-18 04:40:00,21.8,20.3,30.56,NNW,329,0.0,0.0,94,0.00,,,0.00,WeatherCatV1.10B1784,2013-01-18 10:40:00,
2013-01-18 04:45:00,21.8,20.3,30.56,NNW,329,0.0,1.0,94,0.00,,,0.00,WeatherCatV1.10B1784,2013-01-18 10:45:00,
2013-01-18 04:50:00,21.9,20.4,30.56,NNW,329,0.0,0.0,94,0.00,,,0.00,WeatherCatV1.10B1784,2013-01-18 10:50:00,
2013-01-18 04:55:00,21.8,20.3,30.56,NNW,329,0.0,0.0,94,0.00,,,0.00,WeatherCatV1.10B1784,2013-01-18 10:55:00,
2013-01-18 05:00:00,21.8,20.3,30.56,NNW,329,0.0,0.0,94,0.00,,,0.00,WeatherCatV1.10B1784,2013-01-18 11:00:00,
2013-01-18 05:05:00,21.7,20.2,30.56,NNW,329,0.0,1.0,94,0.00,,,0.00,WeatherCatV1.10B1784,2013-01-18 11:05:00,
2013-01-18 05:10:00,21.9,20.4,30.56,NNW,329,0.0,1.0,94,0.00,,,0.00,WeatherCatV1.10B1784,2013-01-18 11:10:00,
2013-01-18 05:15:00,22.0,20.5,30.55,NNW,329,0.0,1.0,94,0.00,,,0.00,WeatherCatV1.10B1784,2013-01-18 11:15:00,
2013-01-18 05:20:00,22.1,20.6,30.55,NNW,329,0.0,2.0,94,0.00,,,0.00,WeatherCatV1.10B1784,2013-01-18 11:20:00,
2013-01-18 05:25:00,22.3,21.1,30.55,NNW,329,1.0,1.0,95,0.00,,,0.00,WeatherCatV1.10B1784,2013-01-18 11:25:00,
2013-01-18 05:30:00,22.4,21.2,30.55,NNW,329,0.0,1.0,95,0.00,,,0.00,WeatherCatV1.10B1784,2013-01-18 11:30:00,
2013-01-18 05:35:00,22.5,21.0,30.55,NNW,329,0.0,2.0,94,0.00,,,0.00,WeatherCatV1.10B1784,2013-01-18 11:35:00,
2013-01-18 05:40:00,22.6,21.1,30.55,NNW,329,1.0,3.0,94,0.00,,,0.00,WeatherCatV1.10B1784,2013-01-18 11:40:00,
2013-01-18 05:45:00,22.7,21.2,30.54,NNW,329,0.0,1.0,94,0.00,,,0.00,WeatherCatV1.10B1784,2013-01-18 11:45:00,
2013-01-18 05:50:00,22.9,21.4,30.55,NNW,329,0.0,1.0,94,0.00,,,0.00,WeatherCatV1.10B1784,2013-01-18 11:50:00,
2013-01-18 05:55:00,23.0,21.5,30.54,NNW,329,1.0,2.0,94,0.00,,,0.00,WeatherCatV1.10B1784,2013-01-18 11:55:00,
2013-01-18 06:00:00,23.1,21.6,30.54,NNW,329,0.0,1.0,94,0.00,,,0.00,WeatherCatV1.10B1784,2013-01-18 12:00:00,
2013-01-18 06:05:00,23.2,21.7,30.54,NNW,329,2.0,2.0,94,0.00,,,0.00,WeatherCatV1.10B1784,2013-01-18 12:05:00,
2013-01-18 06:10:00,23.3,21.8,30.54,NNW,329,0.0,1.0,94,0.00,,,0.00,WeatherCatV1.10B1784,2013-01-18 12:10:00,
2013-01-18 06:15:00,23.4,21.9,30.54,NNW,329,0.0,0.0,94,0.00,,,0.00,WeatherCatV1.10B1784,2013-01-18 12:15:00,
2013-01-18 06:20:00,23.4,21.9,30.54,NNW,329,1.0,1.0,94,0.00,,,0.00,WeatherCatV1.10B1784,2013-01-18 12:20:00,
2013-01-18 06:25:00,23.4,21.9,30.54,NNW,329,0.0,0.0,94,0.00,,,0.00,WeatherCatV1.10B1784,2013-01-18 12:25:00,
2013-01-18 06:30:00,23.3,21.6,30.54,NNW,329,0.0,0.0,93,0.00,,,0.00,WeatherCatV1.10B1784,2013-01-18 12:30:00,
2013-01-18 06:35:00,23.3,21.6,30.54,NNW,329,0.0,0.0,93,0.00,,,0.00,WeatherCatV1.10B1784,2013-01-18 12:35:00,
2013-01-18 06:40:00,23.2,21.5,30.54,NNW,329,2.0,2.0,93,0.00,,,0.00,WeatherCatV1.10B1784,2013-01-18 12:40:00,
2013-01-18 06:45:00,23.1,21.4,30.54,NNW,329,0.0,0.0,93,0.00,,,0.00,WeatherCatV1.10B1784,2013-01-18 12:45:00,
2013-01-18 06:50:00,23.0,21.3,30.54,NNW,329,0.0,0.0,93,0.00,,,0.00,WeatherCatV1.10B1784,2013-01-18 12:50:00,
2013-01-18 06:55:00,22.9,21.2,30.54,NNW,329,0.0,0.0,93,0.00,,,0.00,WeatherCatV1.10B1784,2013-01-18 12:55:00,
2013-01-18 07:00:00,22.9,21.2,30.54,NNW,329,0.0,0.0,93,0.00,,,0.00,WeatherCatV1.10B1784,2013-01-18 13:00:00,
2013-01-18 07:05:00,22.9,21.2,30.54,NNW,329,0.0,0.0,93,0.00,,,0.00,WeatherCatV1.10B1784,2013-01-18 13:05:00,
2013-01-18 07:10:00,22.9,21.2,30.54,NNW,329,0.0,0.0,93,0.00,,,0.00,WeatherCatV1.10B1784,2013-01-18 13:10:00,
2013-01-18 07:15:00,23.0,21.5,30.54,NNW,329,0.0,0.0,94,0.00,,,0.00,WeatherCatV1.10B1784,2013-01-18 13:15:00,
2013-01-18 07:20:00,23.0,21.5,30.54,NNW,329,0.0,0.0,94,0.00,,,0.00,WeatherCatV1.10B1784,2013-01-18 13:20:00,
2013-01-18 07:25:00,23.0,21.3,30.54,NNW,329,0.0,1.0,93,0.00,,,0.00,WeatherCatV1.10B1784,2013-01-18 13:25:00,
2013-01-18 07:30:00,23.0,21.3,30.54,NNW,329,0.0,1.0,93,0.00,,,0.00,WeatherCatV1.10B1784,2013-01-18 13:30:00,
2013-01-18 07:35:00,23.2,21.7,30.53,NNW,329,0.0,1.0,94,0.00,,,0.00,WeatherCatV1.10B1784,2013-01-18 13:35:00,
2013-01-18 07:40:00,23.5,22.0,30.53,SSE,149,0.0,4.0,94,0.00,,,0.00,WeatherCatV1.10B1784,2013-01-18 13:40:00,
2013-01-18 07:45:00,23.8,22.6,30.53,SE,133,0.0,3.0,95,0.00,,,0.00,WeatherCatV1.10B1784,2013-01-18 13:45:00,
2013-01-18 07:50:00,24.3,23.1,30.54,SE,130,2.0,2.0,95,0.00,,,0.00,WeatherCatV1.10B1784,2013-01-18 13:50:00,
2013-01-18 07:55:00,24.8,23.6,30.53,SE,130,2.0,3.0,95,0.00,,,0.00,WeatherCatV1.10B1784,2013-01-18 13:55:00,
2013-01-18 08:00:00,25.5,24.3,30.53,SSE,155,1.0,3.0,95,0.00,,,0.00,WeatherCatV1.10B1784,2013-01-18 14:00:00,
2013-01-18 08:05:00,26.3,25.1,30.53,South,179,0.0,5.0,95,0.00,,,0.00,WeatherCatV1.10B1784,2013-01-18 14:05:00,
2013-01-18 08:10:00,27.2,26.0,30.53,SE,136,2.0,5.0,95,0.00,,,0.00,WeatherCatV1.10B1784,2013-01-18 14:10:00,
2013-01-18 08:15:00,28.1,26.6,30.53,SSW,196,6.0,7.0,94,0.00,,,0.00,WeatherCatV1.10B1784,2013-01-18 14:15:00,
2013-01-18 08:20:00,28.9,27.1,30.53,SSE,159,2.0,5.0,93,0.00,,,0.00,WeatherCatV1.10B1784,2013-01-18 14:20:00,
2013-01-18 08:25:00,29.8,27.5,30.53,SE,136,3.0,10.0,91,0.00,,,0.00,WeatherCatV1.10B1784,2013-01-18 14:25:00,
2013-01-18 08:30:00,30.5,27.7,30.53,SSE,150,1.0,7.0,89,0.00,,,0.00,WeatherCatV1.10B1784,2013-01-18 14:30:00,
2013-01-18 08:35:00,31.1,28.0,30.52,SE,144,3.0,6.0,88,0.00,,,0.00,WeatherCatV1.10B1784,2013-01-18 14:35:00,
2013-01-18 08:40:00,31.7,28.3,30.52,South,191,2.0,7.0,87,0.00,,,0.00,WeatherCatV1.10B1784,2013-01-18 14:40:00,
2013-01-18 08:45:00,32.2,28.5,30.52,SE,128,3.0,4.0,86,0.00,,,0.00,WeatherCatV1.10B1784,2013-01-18 14:45:00,
2013-01-18 08:50:00,32.9,28.9,30.52,SSE,148,5.0,5.0,85,0.00,,,0.00,WeatherCatV1.10B1784,2013-01-18 14:50:00,
2013-01-18 08:55:00,33.4,28.8,30.53,South,173,1.0,6.0,83,0.00,,,0.00,WeatherCatV1.10B1784,2013-01-18 14:55:00,
2013-01-18 09:00:00,33.9,29.3,30.53,SSE,148,2.0,7.0,83,0.00,,,0.00,WeatherCatV1.10B1784,2013-01-18 15:00:00,
2013-01-18 09:05:00,34.4,29.2,30.53,SSE,164,8.0,10.0,81,0.00,,,0.00,WeatherCatV1.10B1784,2013-01-18 15:05:00,
2013-01-18 09:10:00,34.8,29.6,30.53,South,177,0.0,5.0,81,0.00,,,0.00,WeatherCatV1.10B1784,2013-01-18 15:10:00,
2013-01-18 09:15:00,35.3,29.8,30.53,SE,132,5.0,6.0,80,0.00,,,0.00,WeatherCatV1.10B1784,2013-01-18 15:15:00,
2013-01-18 09:20:00,35.9,30.0,30.53,SE,127,7.0,8.0,79,0.00,,,0.00,WeatherCatV1.10B1784,2013-01-18 15:20:00,
2013-01-18 09:25:00,36.3,30.1,30.53,ESE,118,4.0,8.0,78,0.00,,,0.00,WeatherCatV1.10B1784,2013-01-18 15:25:00,
2013-01-18 09:30:00,36.7,30.5,30.53,SSE,148,3.0,8.0,78,0.00,,,0.00,WeatherCatV1.10B1784,2013-01-18 15:30:00,
2013-01-18 09:35:00,37.1,30.2,30.53,SE,132,3.0,9.0,76,0.00,,,0.00,WeatherCatV1.10B1784,2013-01-18 15:35:00,
2013-01-18 09:40:00,37.5,30.6,30.53,South,180,4.0,7.0,76,0.00,,,0.00,WeatherCatV1.10B1784,2013-01-18 15:40:00,
2013-01-18 09:45:00,37.9,30.4,30.53,South,188,5.0,7.0,74,0.00,,,0.00,WeatherCatV1.10B1784,2013-01-18 15:45:00,
2013-01-18 09:50:00,38.3,30.8,30.53,South,170,5.0,7.0,74,0.00,,,0.00,WeatherCatV1.10B1784,2013-01-18 15:50:00,
2013-01-18 09:55:00,38.8,30.9,30.53,SSE,148,3.0,9.0,73,0.00,,,0.00,WeatherCatV1.10B1784,2013-01-18 15:55:00,
2013-01-18 10:00:00,39.3,31.0,30.54,SSE,156,2.0,6.0,72,0.00,,,0.00,WeatherCatV1.10B1784,2013-01-18 16:00:00,
2013-01-18 10:05:00,39.8,31.2,30.53,SE,141,5.0,7.0,71,0.00,,,0.00,WeatherCatV1.10B1784,2013-01-18 16:05:00,
2013-01-18 10:10:00,40.3,31.3,30.53,SSE,153,5.0,8.0,70,0.00,,,0.00,WeatherCatV1.10B1784,2013-01-18 16:10:00,
2013-01-18 10:15:00,40.6,31.2,30.53,South,188,5.0,8.0,69,0.00,,,0.00,WeatherCatV1.10B1784,2013-01-18 16:15:00,
2013-01-18 10:20:00,41.1,30.6,30.53,SSE,165,6.0,11.0,66,0.00,,,0.00,WeatherCatV1.10B1784,2013-01-18 16:20:00,
2013-01-18 10:25:00,41.5,31.0,30.53,South,183,3.0,8.0,66,0.00,,,0.00,WeatherCatV1.10B1784,2013-01-18 16:25:00,
2013-01-18 10:30:00,42.0,30.7,30.52,SSW,202,3.0,9.0,64,0.00,,,0.00,WeatherCatV1.10B1784,2013-01-18 16:30:00,
2013-01-18 10:35:00,42.4,30.7,30.52,SSE,157,4.0,7.0,63,0.00,,,0.00,WeatherCatV1.10B1784,2013-01-18 16:35:00,
2013-01-18 10:40:00,42.7,30.6,30.52,South,186,2.0,5.0,62,0.00,,,0.00,WeatherCatV1.10B1784,2013-01-18 16:40:00,
2013-01-18 10:45:00,43.1,31.0,30.52,South,173,5.0,8.0,62,0.00,,,0.00,WeatherCatV1.10B1784,2013-01-18 16:45:00,
2013-01-18 10:50:00,43.4,31.7,30.52,South,173,5.0,5.0,63,0.00,,,0.00,WeatherCatV1.10B1784,2013-01-18 16:50:00,
2013-01-18 10:55:00,43.9,31.7,30.51,South,169,5.0,6.0,62,0.00,,,0.00,WeatherCatV1.10B1784,2013-01-18 16:55:00,
2013-01-18 11:00:00,44.3,31.7,30.51,SW,227,6.0,8.0,61,0.00,,,0.00,WeatherCatV1.10B1784,2013-01-18 17:00:00,
2013-01-18 11:05:00,44.8,31.8,30.50,South,174,2.0,9.0,60,0.00,,,0.00,WeatherCatV1.10B1784,2013-01-18 17:05:00,
2013-01-18 11:10:00,45.4,31.5,30.50,SW,215,7.0,7.0,58,0.00,,,0.00,WeatherCatV1.10B1784,2013-01-18 17:10:00,
2013-01-18 11:15:00,46.0,31.6,30.50,SW,232,4.0,6.0,57,0.00,,,0.00,WeatherCatV1.10B1784,2013-01-18 17:15:00,
2013-01-18 11:20:00,46.4,30.7,30.49,South,179,4.0,10.0,54,0.00,,,0.00,WeatherCatV1.10B1784,2013-01-18 17:20:00,
2013-01-18 11:25:00,46.9,31.1,30.49,South,173,7.0,9.0,54,0.00,,,0.00,WeatherCatV1.10B1784,2013-01-18 17:25:00,
2013-01-18 11:30:00,47.5,31.7,30.48,SW,229,11.0,11.0,54,0.00,,,0.00,WeatherCatV1.10B1784,2013-01-18 17:30:00,
2013-01-18 11:35:00,48.0,31.2,30.48,South,186,8.0,9.0,52,0.00,,,0.00,WeatherCatV1.10B1784,2013-01-18 17:35:00,
2013-01-18 11:40:00,48.3,31.0,30.47,SW,225,5.0,8.0,51,0.00,,,0.00,WeatherCatV1.10B1784,2013-01-18 17:40:00,
2013-01-18 11:45:00,48.5,31.2,30.47,SW,223,4.0,10.0,51,0.00,,,0.00,WeatherCatV1.10B1784,2013-01-18 17:45:00,
2013-01-18 11:50:00,49.0,31.2,30.47,SSW,209,8.0,12.0,50,0.00,,,0.00,WeatherCatV1.10B1784,2013-01-18 17:50:00,
2013-01-18 11:55:00,49.0,30.7,30.46,SW,220,2.0,11.0,49,0.00,,,0.00,WeatherCatV1.10B1784,2013-01-18 17:55:00,
2013-01-18 12:00:00,49.4,31.0,30.46,SSW,194,5.0,9.0,49,0.00,,,0.00,WeatherCatV1.10B1784,2013-01-18 18:00:00,
2013-01-18 12:05:00,49.6,30.7,30.45,SSW,196,4.0,7.0,48,0.00,,,0.00,WeatherCatV1.10B1784,2013-01-18 18:05:00,
2013-01-18 12:10:00,49.6,30.7,30.45,WSW,250,4.0,12.0,48,0.00,,,0.00,WeatherCatV1.10B1784,2013-01-18 18:10:00,
2013-01-18 12:15:00,49.6,30.7,30.44,SSW,205,7.0,10.0,48,0.00,,,0.00,WeatherCatV1.10B1784,2013-01-18 18:15:00,
2013-01-18 12:20:00,49.8,30.9,30.43,SW,221,5.0,11.0,48,0.00,,,0.00,WeatherCatV1.10B1784,2013-01-18 18:20:00,
2013-01-18 12:25:00,50.1,30.7,30.43,South,178,6.0,11.0,47,0.00,,,0.00,WeatherCatV1.10B1784,2013-01-18 18:25:00,
2013-01-18 12:30:00,50.2,31.3,30.42,WSW,257,4.0,10.0,48,0.00,,,0.00,WeatherCatV1.10B1784,2013-01-18 18:30:00,
2013-01-18 12:35:00,50.6,30.6,30.42,SW,226,3.0,13.0,46,0.00,,,0.00,WeatherCatV1.10B1784,2013-01-18 18:35:00,
2013-01-18 12:40:00,50.9,31.4,30.42,WSW,248,4.0,6.0,47,0.00,,,0.00,WeatherCatV1.10B1784,2013-01-18 18:40:00,
2013-01-18 12:45:00,51.4,31.3,30.41,South,184,4.0,7.0,46,0.00,,,0.00,WeatherCatV1.10B1784,2013-01-18 18:45:00,
2013-01-18 12:50:00,51.7,31.1,30.41,SSW,198,4.0,15.0,45,0.00,,,0.00,WeatherCatV1.10B1784,2013-01-18 18:50:00,
2013-01-18 12:55:00,52.0,31.3,30.41,WSW,246,6.0,7.0,45,0.00,,,0.00,WeatherCatV1.10B1784,2013-01-18 18:55:00,
2013-01-18 13:00:00,52.4,30.6,30.40,SW,220,7.0,12.0,43,0.00,,,0.00,WeatherCatV1.10B1784,2013-01-18 19:00:00,
2013-01-18 13:05:00,52.7,31.4,30.40,SSW,205,7.0,10.0,44,0.00,,,0.00,WeatherCatV1.10B1784,2013-01-18 19:05:00,
2013-01-18 13:10:00,53.1,30.6,30.40,SSW,200,7.0,8.0,42,0.00,,,0.00,WeatherCatV1.10B1784,2013-01-18 19:10:00,
2013-01-18 13:15:00,53.3,30.8,30.40,South,175,9.0,11.0,42,0.00,,,0.00,WeatherCatV1.10B1784,2013-01-18 19:15:00,
2013-01-18 13:20:00,53.3,30.8,30.39,South,169,5.0,13.0,42,0.00,,,0.00,WeatherCatV1.10B1784,2013-01-18 19:20:00,
2013-01-18 13:25:00,53.5,31.0,30.39,SE,138,6.0,11.0,42,0.00,,,0.00,WeatherCatV1.10B1784,2013-01-18 19:25:00,
2013-01-18 13:30:00,53.8,30.7,30.39,South,181,7.0,9.0,41,0.00,,,0.00,WeatherCatV1.10B1784,2013-01-18 19:30:00,
2013-01-18 13:35:00,53.8,30.7,30.38,SSE,161,5.0,8.0,41,0.00,,,0.00,WeatherCatV1.10B1784,2013-01-18 19:35:00,
2013-01-18 13:40:00,54.1,30.9,30.38,SW,227,8.0,13.0,41,0.00,,,0.00,WeatherCatV1.10B1784,2013-01-18 19:40:00,
2013-01-18 13:45:00,54.3,30.5,30.38,SSE,168,6.0,10.0,40,0.00,,,0.00,WeatherCatV1.10B1784,2013-01-18 19:45:00,
2013-01-18 13:50:00,54.4,31.2,30.38,SSE,163,4.0,5.0,41,0.00,,,0.00,WeatherCatV1.10B1784,2013-01-18 19:50:00,
2013-01-18 13:55:00,54.5,31.3,30.38,SSW,200,3.0,8.0,41,0.00,,,0.00,WeatherCatV1.10B1784,2013-01-18 19:55:00,
2013-01-18 14:00:00,54.8,30.9,30.37,South,175,5.0,10.0,40,0.00,,,0.00,WeatherCatV1.10B1784,2013-01-18 20:00:00,
2013-01-18 14:05:00,55.0,31.1,30.37,SSE,163,3.0,11.0,40,0.00,,,0.00,WeatherCatV1.10B1784,2013-01-18 20:05:00,
2013-01-18 14:10:00,55.1,31.2,30.37,SSW,198,3.0,7.0,40,0.00,,,0.00,WeatherCatV1.10B1784,2013-01-18 20:10:00,
2013-01-18 14:15:00,55.5,32.2,30.36,SW,222,5.0,5.0,41,0.00,,,0.00,WeatherCatV1.10B1784,2013-01-18 20:15:00,
2013-01-18 14:20:00,55.9,31.3,30.36,SSW,208,7.0,13.0,39,0.00,,,0.00,WeatherCatV1.10B1784,2013-01-18 20:20:00,
2013-01-18 14:25:00,56.0,31.4,30.36,South,177,3.0,10.0,39,0.00,,,0.00,WeatherCatV1.10B1784,2013-01-18 20:25:00,
2013-01-18 14:30:00,56.3,31.0,30.36,SSW,194,6.0,11.0,38,0.00,,,0.00,WeatherCatV1.10B1784,2013-01-18 20:30:00,
2013-01-18 14:35:00,56.5,31.8,30.36,SSE,162,5.0,5.0,39,0.00,,,0.00,WeatherCatV1.10B1784,2013-01-18 20:35:00,
2013-01-18 14:40:00,56.8,31.5,30.35,SSW,192,7.0,8.0,38,0.00,,,0.00,WeatherCatV1.10B1784,2013-01-18 20:40:00,
2013-01-18 14:45:00,57.0,31.6,30.35,SSE,147,8.0,11.0,38,0.00,,,0.00,WeatherCatV1.10B1784,2013-01-18 20:45:00,
2013-01-18 14:50:00,56.9,30.9,30.35,SSW,207,6.0,8.0,37,0.00,,,0.00,WeatherCatV1.10B1784,2013-01-18 20:50:00,
2013-01-18 14:55:00,56.8,30.8,30.35,SW,215,8.0,11.0,37,0.00,,,0.00,WeatherCatV1.10B1784,2013-01-18 20:55:00,
2013-01-18 15:00:00,56.6,30.6,30.35,SSE,163,9.0,9.0,37,0.00,,,0.00,WeatherCatV1.10B1784,2013-01-18 21:00:00,
2013-01-18 15:05:00,56.6,30.6,30.34,SSW,194,6.0,12.0,37,0.00,,,0.00,WeatherCatV1.10B1784,2013-01-18 21:05:00,
2013-01-18 15:10:00,56.7,30.7,30.34,SSW,197,5.0,8.0,37,0.00,,,0.00,WeatherCatV1.10B1784,2013-01-18 21:10:00,
2013-01-18 15:15:00,56.8,31.5,30.34,South,190,5.0,5.0,38,0.00,,,0.00,WeatherCatV1.10B1784,2013-01-18 21:15:00,
2013-01-18 15:20:00,56.8,30.1,30.34,South,188,5.0,9.0,36,0.00,,,0.00,WeatherCatV1.10B1784,2013-01-18 21:20:00,
2013-01-18 15:25:00,56.9,30.2,30.34,South,191,5.0,10.0,36,0.00,,,0.00,WeatherCatV1.10B1784,2013-01-18 21:25:00,
2013-01-18 15:30:00,56.9,30.2,30.34,South,187,4.0,8.0,36,0.00,,,0.00,WeatherCatV1.10B1784,2013-01-18 21:30:00,
2013-01-18 15:41:00,57.0,31.0,30.33,South,181,4.0,4.0,37,0.00,,,0.00,WeatherCatV1.10B1784,2013-01-18 21:41:00,
2013-01-18 15:46:00,57.2,28.4,30.33,South,171,5.0,13.0,33,0.00,,,0.00,WeatherCatV1.10B1784,2013-01-18 21:46:00,
2013-01-18 15:51:00,57.1,27.5,30.33,South,182,10.0,10.0,32,0.00,,,0.00,WeatherCatV1.10B1784,2013-01-18 21:51:00,
2013-01-18 15:56:00,57.0,27.4,30.33,SW,215,6.0,9.0,32,0.00,,,0.00,WeatherCatV1.10B1784,2013-01-18 21:56:00,
2013-01-18 16:01:00,56.9,25.8,30.33,SSE,167,3.0,9.0,30,0.00,,,0.00,WeatherCatV1.10B1784,2013-01-18 22:01:00,
2013-01-18 16:06:00,56.9,25.8,30.33,South,188,2.0,10.0,30,0.00,,,0.00,WeatherCatV1.10B1784,2013-01-18 22:06:00,
2013-01-18 16:11:00,56.9,25.0,30.33,South,182,5.0,8.0,29,0.00,,,0.00,WeatherCatV1.10B1784,2013-01-18 22:11:00,
2013-01-18 16:16:00,56.8,24.1,30.32,SW,220,2.0,11.0,28,0.00,,,0.00,WeatherCatV1.10B1784,2013-01-18 22:16:00,
2013-01-18 16:21:00,56.7,24.0,30.32,SW,219,1.0,7.0,28,0.00,,,0.00,WeatherCatV1.10B1784,2013-01-18 22:21:00,
2013-01-18 16:26:00,56.5,23.8,30.32,SSW,207,4.0,8.0,28,0.00,,,0.00,WeatherCatV1.10B1784,2013-01-18 22:26:00,
2013-01-18 16:31:00,56.2,23.5,30.32,SSW,211,6.0,11.0,28,0.00,,,0.00,WeatherCatV1.10B1784,2013-01-18 22:31:00,
2013-01-18 16:36:00,55.9,23.3,30.32,South,175,8.0,8.0,28,0.00,,,0.00,WeatherCatV1.10B1784,2013-01-18 22:36:00,
2013-01-18 16:41:00,55.5,23.8,30.32,SW,224,2.0,7.0,29,0.00,,,0.00,WeatherCatV1.10B1784,2013-01-18 22:41:00,
2013-01-18 16:46:00,55.2,24.3,30.32,SW,216,4.0,5.0,30,0.00,,,0.00,WeatherCatV1.10B1784,2013-01-18 22:46:00,
2013-01-18 16:51:00,54.8,23.2,30.32,South,176,2.0,5.0,29,0.00,,,0.00,WeatherCatV1.10B1784,2013-01-18 22:51:00,
2013-01-18 16:56:00,54.5,22.9,30.31,SW,215,4.0,7.0,29,0.00,,,0.00,WeatherCatV1.10B1784,2013-01-18 22:56:00,
2013-01-18 17:01:00,54.2,23.5,30.31,South,175,3.0,7.0,30,0.00,,,0.00,WeatherCatV1.10B1784,2013-01-18 23:01:00,
2013-01-18 17:05:00,53.9,23.2,30.31,SSW,198,3.0,4.0,30,0.00,,,0.00,WeatherCatV1.10B1784,2013-01-18 23:05:00,
2013-01-18 17:10:00,53.7,23.0,30.31,SSW,194,3.0,5.0,30,0.00,,,0.00,WeatherCatV1.10B1784,2013-01-18 23:10:00,
2013-01-18 17:15:00,53.2,22.6,30.31,SSW,197,3.0,5.0,30,0.00,,,0.00,WeatherCatV1.10B1784,2013-01-18 23:15:00,
2013-01-18 17:20:00,52.9,22.3,30.31,SSW,202,3.0,4.0,30,0.00,,,0.00,WeatherCatV1.10B1784,2013-01-18 23:20:00,
2013-01-18 17:25:00,52.6,22.1,30.31,SSW,208,3.0,6.0,30,0.00,,,0.00,WeatherCatV1.10B1784,2013-01-18 23:25:00,
2013-01-18 17:30:00,52.3,22.6,30.31,SSW,197,3.0,3.0,31,0.00,,,0.00,WeatherCatV1.10B1784,2013-01-18 23:30:00,
2013-01-18 17:35:00,51.9,22.2,30.31,SSW,194,3.0,5.0,31,0.00,,,0.00,WeatherCatV1.10B1784,2013-01-18 23:35:00,
2013-01-18 17:40:00,51.5,21.9,30.31,SSW,194,3.0,3.0,31,0.00,,,0.00,WeatherCatV1.10B1784,2013-01-18 23:40:00,
2013-01-18 17:45:00,51.1,21.5,30.31,SSW,198,2.0,5.0,31,0.00,,,0.00,WeatherCatV1.10B1784,2013-01-18 23:45:00,
2013-01-18 17:50:00,50.8,21.3,30.31,SSW,200,2.0,8.0,31,0.00,,,0.00,WeatherCatV1.10B1784,2013-01-18 23:50:00,
2013-01-18 17:55:00,50.5,21.8,30.31,SSW,197,3.0,7.0,32,0.00,,,0.00,WeatherCatV1.10B1784,2013-01-18 23:55:00,
2013-01-18 18:00:00,50.3,21.6,30.30,SSW,196,3.0,4.0,32,0.00,,,0.00,WeatherCatV1.10B1784,2013-01-19 00:00:00,
2013-01-18 18:10:00,50.1,21.4,30.31,SSW,198,3.0,6.0,32,0.00,,,0.00,WeatherCatV1.10B1784,2013-01-19 00:10:00,
2013-01-18 18:15:00,49.7,21.8,30.30,SSW,210,1.0,3.0,33,0.00,,,0.00,WeatherCatV1.10B1784,2013-01-19 00:15:00,
2013-01-18 18:20:00,49.4,21.5,30.30,SSW,200,5.0,10.0,33,0.00,,,0.00,WeatherCatV1.10B1784,2013-01-19 00:20:00,
2013-01-18 18:25:00,49.2,21.3,30.30,SW,217,2.0,8.0,33,0.00,,,0.00,WeatherCatV1.10B1784,2013-01-19 00:25:00,
2013-01-18 18:30:00,49.1,22.0,30.30,SW,219,3.0,4.0,34,0.00,,,0.00,WeatherCatV1.10B1784,2013-01-19 00:30:00,
2013-01-18 18:35:00,48.9,21.8,30.30,SSW,211,5.0,5.0,34,0.00,,,0.00,WeatherCatV1.10B1784,2013-01-19 00:35:00,
2013-01-18 18:40:00,48.8,21.7,30.30,SSE,168,2.0,5.0,34,0.00,,,0.00,WeatherCatV1.10B1784,2013-01-19 00:40:00,
2013-01-18 18:45:00,48.8,21.7,30.30,SW,227,6.0,9.0,34,0.00,,,0.00,WeatherCatV1.10B1784,2013-01-19 00:45:00,
2013-01-18 18:50:00,48.8,21.7,30.30,South,186,4.0,8.0,34,0.00,,,0.00,WeatherCatV1.10B1784,2013-01-19 00:50:00,
2013-01-18 18:55:00,48.8,22.4,30.30,SSW,195,2.0,7.0,35,0.00,,,0.00,WeatherCatV1.10B1784,2013-01-19 00:55:00,
2013-01-18 19:00:00,48.6,22.2,30.30,South,190,0.0,7.0,35,0.00,,,0.00,WeatherCatV1.10B1784,2013-01-19 01:00:00,
2013-01-18 19:05:00,48.4,22.7,30.30,South,175,0.0,6.0,36,0.00,,,0.00,WeatherCatV1.10B1784,2013-01-19 01:05:00,
2013-01-18 19:10:00,48.0,22.3,30.30,SSW,206,3.0,5.0,36,0.00,,,0.00,WeatherCatV1.10B1784,2013-01-19 01:10:00,
2013-01-18 19:15:00,47.8,22.2,30.29,SW,223,4.0,7.0,36,0.00,,,0.00,WeatherCatV1.10B1784,2013-01-19 01:15:00,
2013-01-18 19:20:00,47.5,22.5,30.29,SSW,203,1.0,6.0,37,0.00,,,0.00,WeatherCatV1.10B1784,2013-01-19 01:20:00,
2013-01-18 19:25:00,47.3,22.4,30.29,South,180,2.0,7.0,37,0.00,,,0.00,WeatherCatV1.10B1784,2013-01-19 01:25:00,
2013-01-18 19:30:00,46.9,22.6,30.29,South,184,3.0,3.0,38,0.00,,,0.00,WeatherCatV1.10B1784,2013-01-19 01:30:00,
2013-01-18 19:35:00,46.5,22.9,30.29,ESE,115,8.0,8.0,39,0.00,,,0.00,WeatherCatV1.10B1784,2013-01-19 01:35:00,
2013-01-18 19:40:00,46.2,23.2,30.29,South,182,2.0,10.0,40,0.00,,,0.00,WeatherCatV1.10B1784,2013-01-19 01:40:00,
2013-01-18 19:45:00,46.0,24.2,30.29,South,182,3.0,7.0,42,0.00,,,0.00,WeatherCatV1.10B1784,2013-01-19 01:45:00,
2013-01-18 19:53:00,45.8,25.1,30.28,SSE,159,3.0,7.0,44,0.00,,,0.00,WeatherCatV1.10B1784,2013-01-19 01:53:00,
2013-01-18 19:58:00,45.6,25.5,30.29,South,180,2.0,10.0,45,0.00,,,0.00,WeatherCatV1.10B1784,2013-01-19 01:58:00,
2013-01-18 20:03:00,45.6,26.0,30.29,South,181,4.0,6.0,46,0.00,,,0.00,WeatherCatV1.10B1784,2013-01-19 02:03:00,
2013-01-18 20:08:00,45.6,26.0,30.29,SW,217,4.0,5.0,46,0.00,,,0.00,WeatherCatV1.10B1784,2013-01-19 02:08:00,
2013-01-18 20:14:00,45.6,26.5,30.28,South,181,5.0,6.0,47,0.00,,,0.00,WeatherCatV1.10B1784,2013-01-19 02:14:00,
2013-01-18 20:19:00,45.5,27.0,30.28,SSW,196,1.0,5.0,48,0.00,,,0.00,WeatherCatV1.10B1784,2013-01-19 02:19:00,
2013-01-18 20:24:00,45.4,26.9,30.28,SW,219,5.0,9.0,48,0.00,,,0.00,WeatherCatV1.10B1784,2013-01-19 02:24:00,
2013-01-18 20:29:00,45.2,27.2,30.28,South,185,1.0,5.0,49,0.00,,,0.00,WeatherCatV1.10B1784,2013-01-19 02:29:00,
2013-01-18 20:34:00,45.1,27.6,30.28,SSW,193,1.0,5.0,50,0.00,,,0.00,WeatherCatV1.10B1784,2013-01-19 02:34:00,
2013-01-18 20:39:00,44.8,27.3,30.28,South,186,2.0,4.0,50,0.00,,,0.00,WeatherCatV1.10B1784,2013-01-19 02:39:00,
2013-01-18 20:44:00,44.6,27.1,30.28,SSW,194,2.0,5.0,50,0.00,,,0.00,WeatherCatV1.10B1784,2013-01-19 02:44:00,
2013-01-18 20:55:00,44.0,27.0,30.28,SSW,192,3.0,5.0,51,0.00,,,0.00,WeatherCatV1.10B1784,2013-01-19 02:55:00,
2013-01-18 21:00:00,43.8,26.9,30.28,South,183,1.0,3.0,51,0.00,,,0.00,WeatherCatV1.10B1784,2013-01-19 03:00:00,
2013-01-18 21:05:00,43.5,27.1,30.28,South,191,0.0,4.0,52,0.00,,,0.00,WeatherCatV1.10B1784,2013-01-19 03:05:00,
2013-01-18 21:10:00,43.2,26.8,30.28,SSE,155,1.0,2.0,52,0.00,,,0.00,WeatherCatV1.10B1784,2013-01-19 03:10:00,
2013-01-18 21:15:00,42.8,26.9,30.28,SSE,155,1.0,1.0,53,0.00,,,0.00,WeatherCatV1.10B1784,2013-01-19 03:15:00,
2013-01-18 21:20:00,42.3,26.4,30.27,South,169,1.0,3.0,53,0.00,,,0.00,WeatherCatV1.10B1784,2013-01-19 03:20:00,
2013-01-18 21:25:00,41.8,26.4,30.27,SSE,165,3.0,4.0,54,0.00,,,0.00,WeatherCatV1.10B1784,2013-01-19 03:25:00,
2013-01-18 21:30:00,41.8,26.4,30.27,SSE,167,2.0,2.0,54,0.00,,,0.00,WeatherCatV1.10B1784,2013-01-19 03:30:00,
2013-01-18 21:35:00,41.7,26.3,30.27,South,176,3.0,3.0,54,0.00,,,0.00,WeatherCatV1.10B1784,2013-01-19 03:35:00,
2013-01-18 21:40:00,41.5,26.1,30.27,South,182,2.0,4.0,54,0.00,,,0.00,WeatherCatV1.10B1784,2013-01-19 03:40:00,
2013-01-18 21:45:00,41.2,26.3,30.27,South,183,3.0,3.0,55,0.00,,,0.00,WeatherCatV1.10B1784,2013-01-19 03:45:00,
2013-01-18 21:50:00,40.9,26.4,30.27,SSE,150,2.0,4.0,56,0.00,,,0.00,WeatherCatV1.10B1784,2013-01-19 03:50:00,
2013-01-18 21:55:00,40.5,26.5,30.27,SSE,159,1.0,2.0,57,0.00,,,0.00,WeatherCatV1.10B1784,2013-01-19 03:55:00,
2013-01-18 22:00:00,40.1,26.5,30.27,SSE,155,0.0,1.0,58,0.00,,,0.00,WeatherCatV1.10B1784,2013-01-19 04:00:00,
2013-01-18 22:05:00,39.9,26.8,30.27,SSE,155,0.0,0.0,59,0.00,,,0.00,WeatherCatV1.10B1784,2013-01-19 04:05:00,
2013-01-18 22:10:00,39.4,26.7,30.27,SSE,155,0.0,2.0,60,0.00,,,0.00,WeatherCatV1.10B1784,2013-01-19 04:10:00,
2013-01-18 22:15:00,38.8,26.9,30.26,SSE,155,1.0,3.0,62,0.00,,,0.00,WeatherCatV1.10B1784,2013-01-19 04:15:00,
2013-01-18 22:20:00,38.1,27.0,30.26,SSE,155,1.0,3.0,64,0.00,,,0.00,WeatherCatV1.10B1784,2013-01-19 04:20:00,
2013-01-18 22:25:00,37.4,27.1,30.26,SE,142,0.0,3.0,66,0.00,,,0.00,WeatherCatV1.10B1784,2013-01-19 04:25:00,
2013-01-18 22:30:00,36.8,26.9,30.26,SE,139,3.0,3.0,67,0.00,,,0.00,WeatherCatV1.10B1784,2013-01-19 04:30:00,
2013-01-18 22:35:00,36.5,27.3,30.26,SSE,161,0.0,2.0,69,0.00,,,0.00,WeatherCatV1.10B1784,2013-01-19 04:35:00,
2013-01-18 22:40:00,36.2,27.0,30.26,SSE,166,0.0,2.0,69,0.00,,,0.00,WeatherCatV1.10B1784,2013-01-19 04:40:00,
2013-01-18 22:45:00,36.1,27.3,30.26,South,171,1.0,2.0,70,0.00,,,0.00,WeatherCatV1.10B1784,2013-01-19 04:45:00,
2013-01-18 22:50:00,35.9,27.4,30.26,South,171,2.0,2.0,71,0.00,,,0.00,WeatherCatV1.10B1784,2013-01-19 04:50:00,
2013-01-18 22:55:00,35.7,27.6,30.26,South,171,0.0,2.0,72,0.00,,,0.00,WeatherCatV1.10B1784,2013-01-19 04:55:00,
2013-01-18 23:00:00,35.2,27.1,30.26,South,171,0.0,1.0,72,0.00,,,0.00,WeatherCatV1.10B1784,2013-01-19 05:00:00,
2013-01-18 23:01:00,35.2,27.1,30.26,South,171,1.0,1.0,72,0.00,,,0.00,WeatherCatV1.10B1784,2013-01-19 05:01:00,
2013-01-18 23:06:00,34.7,26.9,30.25,SSE,154,2.0,3.0,73,0.00,,,0.00,WeatherCatV1.10B1784,2013-01-19 05:06:00,
2013-01-18 23:11:00,34.4,27.0,30.25,SE,144,1.0,3.0,74,0.00,,,0.00,WeatherCatV1.10B1784,2013-01-19 05:11:00,
2013-01-18 23:16:00,34.2,27.1,30.26,SSE,148,1.0,2.0,75,0.00,,,0.00,WeatherCatV1.10B1784,2013-01-19 05:16:00,
2013-01-18 23:21:00,34.1,27.3,30.25,SSE,148,0.0,2.0,76,0.00,,,0.00,WeatherCatV1.10B1784,2013-01-19 05:21:00,
2013-01-18 23:26:00,34.1,27.3,30.25,SSE,147,1.0,4.0,76,0.00,,,0.00,WeatherCatV1.10B1784,2013-01-19 05:26:00,
2013-01-18 23:31:00,34.1,27.3,30.25,SE,146,0.0,1.0,76,0.00,,,0.00,WeatherCatV1.10B1784,2013-01-19 05:31:00,
2013-01-18 23:36:00,34.2,27.4,30.25,SE,146,2.0,2.0,76,0.00,,,0.00,WeatherCatV1.10B1784,2013-01-19 05:36:00,
2013-01-18 23:41:00,34.2,27.4,30.25,SE,146,0.0,1.0,76,0.00,,,0.00,WeatherCatV1.10B1784,2013-01-19 05:41:00,
2013-01-18 23:46:00,34.1,27.7,30.25,SE,146,0.0,0.0,77,0.00,,,0.00,WeatherCatV1.10B1784,2013-01-19 05:46:00,
2013-01-18 23:51:00,34.0,27.6,30.25,SE,146,0.0,0.0,77,0.00,,,0.00,WeatherCatV1.10B1784,2013-01-19 05:51:00,
2013-01-18 23:56:00,33.7,27.0,30.25,SE,146,1.0,1.0,76,0.00,,,0.00,WeatherCatV1.10B1784,2013-01-19 05:56:00,